Tracking 29892 objects as of 21-Nov-2024
HD Live streaming from Space Station
objects crossing your sky now

COSMOS 1190

Track COSMOS 1190 now!
10-day predictions
COSMOS 1190 is classified as:


NORAD ID: 11869
Int'l Code: 1980-056A
Perigee: 774.4 km
Apogee: 794.5 km
Inclination: 74.0 °
Period: 100.4 minutes
Semi major axis: 7155 km
RCS: 2.0919 m2 (large)
Launch date: July 1, 1980
Source: Commonwealth of Independent States (former USSR) (CIS)
Launch site: PLESETSK MISSILE AND SPACE COMPLEX (PKMTR)
Your satellite tracking list
Your tracking list is empty




NASA's NSSDC Master Catalog

Two Line Element Set (TLE):
1 11869U 80056A   24325.82274799  .00000310  00000-0  11938-3 0  9997
2 11869  74.0473   5.4426 0014087 343.8898  16.1804 14.34325990320821
Source of the keplerian elements: AFSPC